Flag for Pakistan Weather past 2 weeks in Rawalpindi, Pakistan

Now
84 °F

Passing clouds.


Feels Like: 94 °F
Forecast: 79 / 97 °F
Wind: 7 mph from Southeast

Location: Islamabad Airport

Current Time: Jul 30, 2014 at 10:29:33 PM

Latest Report: Jul 30, 2014 at 10:00 PM


Visibility: 4 mi

Pressure: 29.62 "Hg

Humidity: 79%

Dew point: 77 °F

Location of RawalpindiLocation

Historic Weather in Rawalpindi — Graph

°F

Rawalpindi temperature yesterday

Maximum temperature yesterday: 84 °F (at 2:00 PM)
Minimum temperature yesterday: 81 °F (at 6:00 AM)
Average temperature yesterday: 82 °F

Past Weeks' High & Low Weather Summary

 TemperatureHumidityPressure
High100 °F (Jul 22, 3:00 PM)100% (Jul 19, 7:00 AM)29.80 "Hg (Jul 19, 7:00 AM)
Low68 °F (Jul 19, 6:00 AM)42% (Jul 20, 4:00 PM)29.42 "Hg (Jul 18, 4:00 PM)
Average85 °F75%29.59 "Hg
* Reported Jul 15 9:00 PM — Jul 30 9:00 PM, Rawalpindi, Weather by CustomWeather, © 2014

Note: Actual official high and low records may vary slightly from our data, if they occured in-between our weather recording intervals... More about our weather records

Advertising

Rawalpindi weather history for previous 24 hours

 ConditionsComfort  
Time TempWeatherWind HumidityBarometerVisibility
9:00 PM
Jul 30
88 °FPassing clouds.7 mph70%29.62 "Hg4 mi
8:00 PM88 °FPassing clouds.12 mph70%29.62 "Hg4 mi
7:00 PM88 °FPassing clouds.12 mph70%29.59 "Hg4 mi
6:00 PM90 °FPassing clouds.12 mph67%29.59 "Hg4 mi
5:00 PM91 °FPassing clouds.9 mph63%29.68 "Hg4 mi
4:00 PM93 °FPassing clouds.12 mph56%29.62 "Hg4 mi
3:00 PM93 °FPassing clouds.12 mph56%29.62 "Hg4 mi
2:00 PM91 °FHaze.12 mph63%29.65 "Hg3 mi
1:00 PM91 °FScattered clouds.12 mph63%29.68 "Hg2 mi
12:00 PM91 °FScattered clouds.12 mph63%29.71 "Hg2 mi
11:00 AM90 °FScattered clouds.7 mph67%29.71 "Hg2 mi
10:00 AM88 °FScattered clouds.7 mph75%29.71 "Hg2 mi
9:00 AM86 °FScattered clouds.No wind75%29.71 "Hg2 mi
8:00 AM82 °FFog.No wind84%29.71 "Hg2 mi
7:00 AM81 °FFog.No wind89%29.68 "Hg2 mi
6:00 AM79 °FFog.No wind94%29.68 "Hg2 mi
5:00 AM77 °FFog.5 mph94%29.65 "Hg2 mi
4:00 AM77 °FFog.5 mph94%29.65 "Hg2 mi
3:00 AM79 °FFog.5 mph94%29.68 "Hg2 mi
2:00 AM79 °FFog.7 mph94%29.68 "Hg2 mi
1:00 AM79 °FFog.5 mph94%29.68 "Hg2 mi
12:00 AM81 °FFog.7 mph89%29.68 "Hg3 mi
11:00 PM
Jul 29
81 °FFog.7 mph89%29.68 "Hg3 mi
10:00 PM82 °FPassing clouds.7 mph79%29.65 "Hg3 mi
Weather by CustomWeather, © 2014

See weather overviewHow to use our weather pages